User: anonymous   Login
Location: Unspecified
(0.0000°N, 0.0000°E)
Time: 07:45:08
(UTC+00:00)
Language:

FALCONSAT 3 - Orbit

View from above orbital plane
View from above orbital plane
View from above satellite
View from above satellite

Ground track
Ground track

The orbit data is extracted from the following two-line orbital elements,

1 30776U 07006E   19082.91673009 +.00002050 +00000-0 +58996-4 0  9999
2 30776 035.4351 284.3301 0002344 020.8876 339.1946 15.35780385667336
Epoch (UTC): 23 March 2019 22:00:05
Eccentricity: 0.0002344
inclination: 35.4351°
perigee height: 457 km
apogee height: 460 km
right ascension of ascending node: 284.3301°
argument of perigee: 20.8876°
revolutions per day: 15.35780385
mean anomaly at epoch: 339.1946°
orbit number at epoch: 66733

The dashed part of the orbit path shows where the satellite is in the earth's shadow,  

DLR